Location: *
(47.2969°N, 10.2930°E)
Time: 09:13:00
(UTC+00:00)

Resurs 1-3 - Pass Details

Date: 09 April 2020
Orbit: 630 x 632 km, 97.9° (Epoch: 01 June)

Event Time Altitude Azimuth Distance (km) Brightness Sun altitude
Exits shadow 18:41:32 - 132° (SE) 2,214 5.8 -7.6°
Reaches altitude 10° 18:42:05 10° 129° (SE) 2,011 5.6 -7.6°
Maximum altitude 18:45:57 32° 67° (ENE) 1,097 4.5 -8.3°
Drops below altitude 10° 18:49:51 10° 5° (N) 2,025 6.4 -8.9°
Sets 18:52:14 0° 355° (N) 2,938 7.4 -9.2°
